BEIDOU-3 M4 (C22)

Last updated on Mon Jun 22 2026 00:03:30 GMT+0000 (Coordinated Universal Time)

1 43207U 18018A 26171.96002647 -.00000078 00000+0 00000+0 0 9999 2 43207 56.6545 63.0234 0007674 20.2662 339.8025 1.86230959 56812
UTC large
Height (km)
Speed (km/s)
/
Latitude / Longitude
Inclination (degrees)
Orbital Period (minutes)
Azimuth
Elevation
Range (km)
Doppler Factor

Next 0 passes for location: London (51.5072 / 0.1276)

No passes found over London.
BEIDOU-3 M4 (C22)